Stations météo

réclame
Mon MeteoGroup
Gallivare, Suède (2049): Température de l'air & dewpoint: 18.08.2019 02:00:00 - 24.08.2019 02:00:00 (CEST)Gallivare, Suède (2049): Vitesse du vent & gusts: 18.08.2019 02:00:00 - 24.08.2019 02:00:00 (CEST)Gallivare, Suède (2049): Direction du vent: 18.08.2019 02:00:00 - 24.08.2019 02:00:00 (CEST)Gallivare, Suède (2049): reduced air pressure: 18.08.2019 02:00:00 - 24.08.2019 02:00:00 (CEST)Gallivare, Suède (2049): visibility: 18.08.2019 02:00:00 - 24.08.2019 02:00:00 (CEST)Gallivare, Suède (2049): Quantités de précipitations: 18.08.2019 02:00:00 - 24.08.2019 02:00:00 (CEST)
Date & Time tt [°C] td [°C] ff [km/h] ff [knt] fx [km/h] fx [knt] dd ppp [hPa] vv [km] rr [mm]
24.08.2019 02:00:00 5,6 5,0 4 2 16 8 W 1017,1 19 0,0
24.08.2019 01:00:00 6,0 5,6 10 5 16 9 W 1016,4 23 0,0
24.08.2019 00:00:00 6,4 6,1 7 4 11 6 W 1015,7 18 0,0
23.08.2019 23:00:00 7,0 6,7 6 4 10 5 W 1015,1 22 0,0
23.08.2019 22:00:00 8,1 7,0 0 0 10 5 N 1014,6 46 0,0
23.08.2019 21:00:00 10,2 8,5 6 3 12 6 WSW 1013,9 46 0,0
23.08.2019 20:00:00 10,4 8,7 3 2 10 5 W 1013,3 42 0,0
23.08.2019 19:00:00 12,2 10,1 4 2 8 4 NNW 1012,8 37 0,1
23.08.2019 18:00:00 13,3 10,3 0 0 8 4 N 1012,5 19 0,1
23.08.2019 17:00:00 14,2 9,0 6 3 12 7 WNW 1012,2 38 0,0
23.08.2019 16:00:00 14,1 9,9 3 2 10 6 SW 1012,2 22 0,0
23.08.2019 15:00:00 14,4 7,2 6 3 16 9 SSE 1012,3 45 0,0
23.08.2019 14:00:00 15,3 6,3 7 4 19 10 SE 1012,2 42 0,0
23.08.2019 13:00:00 15,2 6,7 6 3 18 10 SE 1012,4 44 0,0
23.08.2019 12:00:00 14,8 7,4 6 4 13 7 ESE 1012,8 38 0,0
23.08.2019 11:00:00 13,5 6,6 5 3 14 8 SE 1013,1 41 0,0
23.08.2019 10:00:00 13,9 7,0 5 3 12 6 SE 1013,2 43 0,0
23.08.2019 09:00:00 11,8 7,7 6 3 10 6 E 1013,8 38 0,0
23.08.2019 08:00:00 9,9 7,3 4 2 9 5 E 1014,4 47 0,0
23.08.2019 07:00:00 6,0 5,9 0 0 2 1 N 1015,2 3,5 0,0
23.08.2019 06:00:00 4,4 4,3 0 0 2 1 N 1015,6 0,1 0,0
23.08.2019 05:00:00 3,8 3,5 0 0 2 1 N 1016,0 0,2 0,0
23.08.2019 04:00:00 5,0 4,6 2 1 4 2 WSW 1015,9 12 0,0
23.08.2019 03:00:00 5,8 5,5 0 0 5 3 N 1016,3 14 0,0
23.08.2019 02:00:00 5,2 4,8 0 0 4 2 N 1016,5 21 0,0
23.08.2019 01:00:00 6,3 5,9 0 0 5 3 N 1016,6 19 0,0
23.08.2019 00:00:00 7,4 6,8 0 0 3 1 N 1016,6 50 0,0
22.08.2019 23:00:00 7,2 6,8 3 1 4 2 WSW 1016,9 24 0,0
22.08.2019 22:00:00 7,6 6,7 0 0 8 4 N 1017,0 49 0,0
22.08.2019 21:00:00 9,0 7,6 5 3 8 5 W 1016,7 50 0,0
22.08.2019 20:00:00 11,1 7,8 4 2 14 8 WSW 1016,2 46 0,0
22.08.2019 19:00:00 13,5 7,7 6 3 10 5 NW 1015,7 48 0,0
22.08.2019 18:00:00 14,4 6,2 4 2 12 7 NE 1015,6 49 0,0
22.08.2019 17:00:00 15,7 7,5 7 4 13 7 WSW 1015,4 49 0,0
22.08.2019 16:00:00 13,7 8,1 5 3 14 8 W 1015,9 45 0,0
22.08.2019 15:00:00 13,5 8,6 9 5 18 10 WNW 1016,2 44 0,0
22.08.2019 14:00:00 13,9 9,1 4 2 13 7 SSW 1015,8 44 0,1
22.08.2019 13:00:00 14,0 6,8 10 5 19 10 W 1015,8 40 0,0
22.08.2019 12:00:00 14,2 6,1 8 4 16 9 NNW 1015,8 37 0,0
22.08.2019 11:00:00 14,2 6,3 6 3 16 9 N 1015,8 39 0,0
22.08.2019 10:00:00 12,8 7,5 6 3 11 6 W 1016,0 47 0,0
22.08.2019 09:00:00 11,5 7,2 7 4 13 7 WNW 1016,1 47 0,0
22.08.2019 08:00:00 9,8 7,2 7 4 14 7 WNW 1016,2 50 0,0
22.08.2019 07:00:00 7,8 6,3 9 5 14 8 W 1016,4 50 0,0
22.08.2019 06:00:00 7,0 5,9 9 5 14 8 WNW 1016,4 50 0,0
22.08.2019 05:00:00 5,8 5,2 8 4 11 6 WNW 1016,3 50 0,0
22.08.2019 04:00:00 5,9 5,0 7 4 15 8 W 1016,1 50 0,0
22.08.2019 03:00:00 7,0 5,6 9 5 14 7 WNW 1015,7 50 0,0
22.08.2019 02:00:00 7,4 5,9 8 5 14 8 WNW 1015,4 50 0,0
22.08.2019 01:00:00 7,4 5,9 6 3 14 8 W 1015,0 50 0,0
22.08.2019 00:00:00 8,0 6,1 8 5 13 7 WNW 1014,8 50 0,0
21.08.2019 23:00:00 9,5 6,6 9 5 16 9 W 1014,2 50 0,0
21.08.2019 22:00:00 9,7 6,6 8 4 13 7 WNW 1013,9 50 0,0
21.08.2019 21:00:00 11,5 6,8 8 4 13 7 W 1013,4 50 0,0
21.08.2019 20:00:00 13,7 7,0 9 5 20 11 W 1012,9 50 0,0
21.08.2019 19:00:00 15,6 6,6 9 5 25 13 WSW 1012,5 50 0,0
21.08.2019 18:00:00 17,1 6,6 12 7 27 15 WSW 1011,9 50 0,0
21.08.2019 17:00:00 17,3 6,2 16 9 31 17 SW 1011,7 50 0,0
21.08.2019 16:00:00 17,5 7,0 13 7 30 16 WSW 1011,5 50 0,0
21.08.2019 15:00:00 18,5 7,3 11 6 25 14 W 1011,3 48 0,0
21.08.2019 14:00:00 17,7 7,4 12 7 30 16 WSW 1011,3 46 0,0
21.08.2019 13:00:00 17,4 8,3 13 7 25 14 W 1011,4 41 0,0
21.08.2019 12:00:00 16,6 8,0 11 6 26 14 SW 1011,2 41 0,0
21.08.2019 11:00:00 16,6 8,3 10 6 26 14 SW 1011,1 36 0,0
21.08.2019 10:00:00 16,2 8,7 3 2 9 5 S 1011,0 39 0,0
21.08.2019 09:00:00 14,0 9,6 4 2 8 5 NE 1011,4 38 0,0
21.08.2019 08:00:00 11,5 9,4 5 3 8 5 ENE 1011,6 22 0,0
21.08.2019 07:00:00 9,6 9,5 0 0 4 2 N 1011,7 16 0,0
21.08.2019 06:00:00 8,1 7,8 0 0 4 2 N 1011,5 8 0,0
21.08.2019 05:00:00 7,4 7,1 0 0 4 2 N 1011,5 10 0,0
21.08.2019 04:00:00 7,2 6,9 3 1 5 3 SSW 1011,3 9 0,1
21.08.2019 03:00:00 7,5 7,1 2 1 8 4 NW 1011,1 11 0,0
21.08.2019 02:00:00 8,5 8,2 4 2 7 4 W 1010,9 13 0,0
21.08.2019 01:00:00 8,8 8,7 2 1 5 3 E 1010,6 24 0,0
21.08.2019 00:00:00 7,5 7,2 3 2 5 3 WSW 1010,6 12 0,0
20.08.2019 23:00:00 7,1 6,5 3 2 5 3 SSW 1010,6 9 0,0
20.08.2019 22:00:00 8,7 8,1 2 1 6 3 SSW 1009,8 15 0,0
20.08.2019 21:00:00 10,7 9,6 3 2 8 5 WSW 1009,2 27 0,0
20.08.2019 20:00:00 13,9 9,9 0 0 12 7 N 1008,3 45 0,0
20.08.2019 19:00:00 14,0 11,0 8 4 12 6 WNW 1007,8 40 0,0
20.08.2019 18:00:00 16,2 9,6 4 2 14 7 NW 1006,9 44 0,0
20.08.2019 17:00:00 16,4 9,6 6 4 13 7 NNW 1006,3 47 0,0
20.08.2019 16:00:00 14,7 12,9 6 3 28 15 W 1006,4 40 0,8
20.08.2019 15:00:00 17,6 8,2 12 7 27 15 WSW 1005,4 50 0,0
20.08.2019 14:00:00 18,1 9,4 10 5 19 10 SSW 1004,8 41 0,0
20.08.2019 13:00:00 17,2 10,3 3 1 13 7 W 1004,6 39 0,0
20.08.2019 12:00:00 16,8 11,7 4 2 9 5 ENE 1004,3 39 0,0
20.08.2019 11:00:00 14,8 11,6 0 0 6 4 N 1004,5 31 0,0
20.08.2019 10:00:00 11,6 10,7 0 0 7 4 N 1004,8 34 0,0
20.08.2019 09:00:00 9,4 9,3 4 2 8 5 NNE 1004,7 0,6 0,0
20.08.2019 08:00:00 9,2 9,1 3 2 6 3 E 1004,2 1,1 0,0
20.08.2019 07:00:00 8,5 8,4 0 0 4 2 N 1003,9 0,4 0,0
20.08.2019 06:00:00 7,3 7,2 0 0 4 2 N 1003,6 0,4 0,0
20.08.2019 05:00:00 6,5 6,2 3 1 4 2 S 1003,0 4,2 0,0
20.08.2019 04:00:00 8,1 7,8 2 1 10 6 ENE 1002,2 8 0,0
20.08.2019 03:00:00 9,6 9,0 8 4 14 8 NE 1001,4 28 0,0
20.08.2019 02:00:00 10,3 8,9 4 2 11 6 E 1000,8 50 0,0
20.08.2019 01:00:00 10,8 9,7 6 3 19 11 E 1000,2 41 0,0
20.08.2019 00:00:00 11,6 10,0 7 4 21 11 WSW 999,9 50 0,0
19.08.2019 23:00:00 11,7 9,4 4 2 26 14 W 999,3 46 0,0
19.08.2019 22:00:00 12,3 10,4 13 7 30 16 WSW 998,4 50 0,0
19.08.2019 21:00:00 12,9 11,5 18 10 42 23 SW 997,4 48 0,0
19.08.2019 20:00:00 12,7 11,8 20 11 35 19 SSW 996,6 22 0,0
19.08.2019 19:00:00 12,6 12,0 15 8 30 16 SW 996,0 38 0,6
19.08.2019 18:00:00 12,6 12,1 6 4 14 8 S 995,4 9 2,8
19.08.2019 17:00:00 12,5 12,0 5 3 9 5 ESE 995,4 4,5 2,8
19.08.2019 16:00:00 12,5 12,0 4 2 8 5 E 995,4 6 2,8
19.08.2019 15:00:00 12,3 11,8 5 3 19 10 ESE 996,0 3,3 2,0
19.08.2019 14:00:00 12,3 11,7 8 4 22 12 ESE 996,7 20 0,0
19.08.2019 13:00:00 12,3 11,7 9 5 25 14 ESE 997,3 17 0,7
19.08.2019 12:00:00 12,3 11,8 10 5 24 13 ESE 997,7 15 0,9
19.08.2019 11:00:00 12,0 11,5 8 4 26 14 ESE 998,3 8 2,6
19.08.2019 10:00:00 12,1 11,5 13 7 25 14 ESE 998,9 10 1,2
19.08.2019 09:00:00 12,2 11,7 11 6 29 15 ESE 999,8 10 1,2
19.08.2019 08:00:00 12,5 11,9 8 5 22 12 ESE 1000,4 9 2,3
19.08.2019 07:00:00 12,9 12,4 7 4 18 10 SE 1001,0 4,9 5,6
19.08.2019 06:00:00 12,8 12,5 9 5 19 10 E 1001,6 2,8 3,6
19.08.2019 05:00:00 12,6 12,3 9 5 16 8 E 1002,5 4,2 0,5
19.08.2019 04:00:00 12,6 12,1 4 2 12 6 E 1003,3 10 0,1
19.08.2019 03:00:00 12,8 12,0 5 3 14 8 SSE 1003,8 17 0,0
19.08.2019 02:00:00 12,8 12,2 4 2 12 6 SSE 1004,0 21 0,3
19.08.2019 01:00:00 13,2 12,6 5 3 18 10 SSE 1004,1 15 0,1
19.08.2019 00:00:00 13,2 12,6 11 6 23 12 S 1004,1 18 0,0
18.08.2019 23:00:00 13,4 12,8 8 5 19 10 SSE 1004,1 24 3,9
18.08.2019 22:00:00 13,8 12,7 7 4 18 10 SSE 1003,9 12 0,1
18.08.2019 21:00:00 13,9 12,5 10 5 26 14 S 1004,1 26 0,0
18.08.2019 20:00:00 14,2 12,8 9 5 23 12 SSE 1003,9 30 0,0
18.08.2019 19:00:00 14,1 12,8 13 7 27 14 S 1004,2 29 0,0
18.08.2019 18:00:00 14,5 13,2 10 5 26 14 S 1003,9 38 0,0
18.08.2019 17:00:00 13,7 12,9 8 4 24 13 SSE 1004,3 7 0,2
18.08.2019 16:00:00 13,8 13,0 10 5 29 16 S 1004,2 3,8 0,3
18.08.2019 15:00:00 13,8 13,0 14 7 30 16 S 1004,3 5 0,1
18.08.2019 14:00:00 13,8 13,0 13 7 31 17 S 1004,2 3,6 0,6
18.08.2019 13:00:00 13,5 12,6 10 5 31 17 SSE 1004,2 3,7 0,9
18.08.2019 12:00:00 14,5 11,8 16 9 38 21 S 1004,0 21 0,0
18.08.2019 11:00:00 15,8 12,2 22 12 37 20 S 1003,7 41 0,0
18.08.2019 10:00:00 13,7 11,6 14 7 31 17 S 1003,8 14 0,0
18.08.2019 09:00:00 13,2 10,9 16 8 31 17 S 1003,9 32 0,0
18.08.2019 08:00:00 13,0 11,1 17 9 34 19 S 1003,7 31 0,0
18.08.2019 07:00:00 12,1 10,8 13 7 25 14 S 1003,6 17 0,0
18.08.2019 06:00:00 11,7 10,3 6 4 25 13 SSE 1004,1 15 0,0
18.08.2019 05:00:00 11,6 10,0 10 6 25 13 S 1004,1 26 0,0
18.08.2019 04:00:00 11,6 10,0 13 7 27 15 S 1003,9 24 0,0
18.08.2019 03:00:00 12,2 10,3 11 6 30 16 S 1004,0 26 0,0
18.08.2019 02:00:00 12,8 10,9 13 7 27 14 S 1003,8 26 0,0

tt = Température de l'air
td = dewpoint
ff = Vitesse du vent
fx = gusts
dd = Direction du vent
ppp = reduced air pressure
vv = visibility
rr = Quantités de précipitations

stations d'obs. à proximité